User: anonymous
Location: Unspecified
(0.0000°N, 0.0000°E)
Time: 14:44:03
(UTC+02:00)
Language:

Milstar 3 Cent rocket - Orbit

View from above orbital plane
View from above orbital plane
View from above satellite
View from above satellite

Ground track
Ground track

The orbit data is extracted from the following two-line orbital elements,

1 25725U 99023B   14178.14631904 0.00000000  00000-0  00000-0 0    06
2 25725  28.3191 111.2012 2390418  20.9584 339.0411  9.67167728    04
Epoch (UTC): 27 June 2014 03:30:41
Eccentricity: 0.2390418
inclination: 28.3191°
perigee height: 703 km
apogee height: 5151 km
right ascension of ascending node: 111.2012°
argument of perigee: 20.9584°
revolutions per day: 9.67167728
mean anomaly at epoch: 339.0411°
orbit number at epoch: 0

The dashed part of the orbit path shows where the satellite is in the earth's shadow,  

DLR